Regional Weather Roundup
Issued by NWS

Home | Current Version | Previous Version | Graphics & Text | Print | Product List | Glossary On
Versions: 1 2 3 4 5 6 7 8 9 10 11 12 13 14 15 16 17 18 19 20 21 22 23 24 25 26 27 28 29 30 31 32 33 34 35 36 37 38 39 40 41 42 43 44 45 46 47 48 49 50
000
ASUS45 KBOU 231607
RWRCO

WEATHER ROUNDUP FOR COLORADO
NATIONAL WEATHER SERVICE DENVER/BOULDER CO
1000 AM MDT WED AUG 23 2017

NOTE: "FAIR" INDICATES FEW OR NO CLOUDS BELOW 12000 FEET WITH NO
SIGNIFICANT WEATHER AND/OR OBSTRUCTIONS TO VISIBILITY.

COZ001>005-013-030-031-231700-
...NORTHWEST COLORADO...

CITY           SKY/WX    TMP DP  RH WIND       PRES   REMARKS
CRAIG          FAIR      65  45  48 CALM      30.33S
HAYDEN         FAIR      67  42  40 E9        30.36S
MEEKER         PTSUNNY   69  46  43 SE6       30.33F
RABBIT EARS PA CLOUDY    54  39  58 W10       30.60S
STEAMBOAT SPGS PTSUNNY   60  43  52 CALM      30.37R
WALDEN         FAIR      63  41  45 CALM      30.44S
$$

COZ006>008-011-231700-
...WEST CENTRAL VALLEYS...

CITY           SKY/WX    TMP DP  RH WIND       PRES   REMARKS
GRAND JUNCTION FAIR      76  48  37 S8        30.23F
MONTROSE       FAIR      68  46  45 CALM      30.33S
EAGLE          FAIR      66  42  41 CALM      30.38F
RIFLE          FAIR      68  47  46 CALM      30.29F
DELTA          FAIR      73  46  39 E5        30.29F
NUCLA          FAIR      68  46  45 CALM      30.35S
$$

COZ017>023-064>068-231700-
...SOUTHWEST COLORADO...

CITY           SKY/WX    TMP DP  RH WIND       PRES   REMARKS
DURANGO        FAIR      69  45  41 CALM      30.37F
CORTEZ         FAIR      73  51  46 CALM      30.31S
PAGOSA SPRINGS FAIR      66  43  43 CALM      30.44F
TELLURIDE      FAIR      64  42  44 CALM      30.55S
WOLF CREEK PAS FAIR      50  41  71 SW5       30.76R
$$

COZ009-010-012-014-032>034-037-058>063-231700-
...CENTRAL COLORADO...

CITY           SKY/WX    TMP DP  RH WIND       PRES   REMARKS
ASPEN          FAIR      67  41  38 CALM      30.40F
BUENA VISTA    FAIR      62  43  49 SE3       30.42F
COPPER MTN     FAIR      54  36  50 CALM      30.70S
BERTHOUD PASS  FAIR      45  39  81 NW6       30.73S
COTTONWOOD PAS FAIR      63  39  42 E7        30.54S
GUNNISON       FAIR      57  43  59 CALM      30.47F
KREMMLING      PTSUNNY   64  43  45 CALM      30.42F
LEADVILLE      FAIR      60  37  42 VRB6      30.53F
MONARCH PASS   FAIR      46  36  66 W16       30.79R
SALIDA         FAIR      66  46  48 N6        30.45F
SUNLIGHT       FAIR      54  37  54 W6        30.65S
WILKERSON PASS FAIR      55  32  41 E6        30.66R
$$

COZ069>075-231700-
...SAN LUIS VALLEY/SANGRE DE CRISTO MOUNTAINS...

CITY           SKY/WX    TMP DP  RH WIND       PRES   REMARKS
ALAMOSA        FAIR      59  51  75 E5        30.44F
DEL NORTE      FAIR      60  46  61 CALM      30.47S
LA VETA PASS   NOT AVBL
SAGUACHE         N/A    N/A N/A N/A MISG        N/A
$$

COZ035-036-038>040-231700-
...NORTHERN COLORADO FRONT RANGE...

CITY           SKY/WX    TMP DP  RH WIND       PRES   REMARKS
DENVER INTL AP FAIR      76  52  43 NW8       30.20S
DMNS CITY PARK   N/A     79  47  32 SE7       30.20S
AURORA         MOSUNNY   74  47  37 S7        30.23S
FRONT RANGE AP FAIR      77  50  38 NW8       30.21S
ERIE MUNI ARPT FAIR      75  49  39 CALM      30.24S
BOULDER MUN AP FAIR      75  52  43 CALM      30.20S
CENTENNIAL     FAIR      75  42  30 W6        30.24S
BROOMFIELD     PTSUNNY   73  54  49 CALM      30.23R
FORT COLLINS   FAIR      75  55  49 CALM      30.18F
LONGMONT       FAIR      76  52  42 SW5       30.20S
$$

COZ041-046-047-076>085-087-088-231700-
...PIKES PEAK/PALMER DIVIDE AND SOUTHERN FOOTHILLS...

CITY           SKY/WX    TMP DP  RH WIND       PRES   REMARKS
COLO. SPRINGS  FAIR      69  56  62 CALM      30.29S
A. F. ACADEMY  FAIR      68  51  54 CALM      30.29F
SCHRIEVER AFB  FAIR      66  53  64 SE3       30.29S
CHEYENNE MTN   FAIR      65  54  68 E3        30.27S
ELLICOTT       FAIR     N/A N/A N/A W6        30.27S
FALCON         FAIR      68  51  53 S5        30.33S
FORT CARSON    FAIR      67  55  65 CALM      30.26F
LIMON          FAIR      69  58  67 S15       30.24F
MONUMENT HILL  FAIR      70  46  43 NW3       30.33S
CANON CITY     SUNNY     73  54  49 S3        30.23S
WALSENBURG     FAIR      79  46  31 W8        30.27S
TRINIDAD       FAIR      72  50  45 SW6       30.27F
$$

COZ042>045-048>051-090-091-231700-
...NORTHEAST COLORADO...

CITY           SKY/WX    TMP DP  RH WIND       PRES   REMARKS
GREELEY ARPT   FAIR      70  58  65 CALM      30.17
AKRON            N/A     76  56  49 S18G24    30.17S
BURLINGTON     CLOUDY    70  60  70 S24G31    30.21R
WRAY           CLOUDY    72  59  64 S18G25    30.17S
YUMA           FAIR      72  48  43 S20       30.16S
STERLING       FAIR      75  61  60 SW7       30.12S
HOLYOKE        FAIR      73  61  64 S17G24    30.16S
FORT MORGAN    FAIR      71  53  53 W6        30.16S
$$

COZ086-089-092>099-231700-
...SOUTHEAST COLORADO...

CITY           SKY/WX    TMP DP  RH WIND       PRES   REMARKS
PUEBLO         FAIR      71  54  54 SE5       30.20F
LA JUNTA       FAIR      76  60  57 S9        30.18F
LAMAR          NOT AVBL
SPRINGFIELD      N/A     68  63  84 S14       30.24F
$$



USA.gov is the U.S. government's official web portal to all federal, state and local government web resources and services.